[[{"header":{"parameterUnit":"m.s-1","parameterCategory":1,"la1":30.2991,"la2":30.254,"lo1":-89.0895,"lo2":-89.0444,"dy":0.0017,"dx":0.0017,"nx":28,"ny":28,"refTime":"2023-11-06T09:00:00:Z","depth":0,"parameterNumber":2,"parameterNumberName":"U-component_of_WINDS"},"data":[0,0,0,0,0,0,0,0,0,0,0,0,0,0,0,0,0,0,0,0,0,0,0,0,0,0,0,0,0,0,0,0,0,0,0,0,0,0,0,0,0,0,0,0,0,0,0,0,0,0,0,0,0,0,0,0,0,0,0.3057,0.3058,0,0.3173,0.3174,0.3176,0.3219,0.3218,0.3218,0.3218,0.3339,0.3342,0.3346,0,0,0,0,0,0,0,0,0,0,0,0,0,0.2874,0.2877,0.3057,0.3058,0.306,0.3173,0.3174,0.3176,0.3219,0.3218,0.3218,0.3217,0.3337,0.3342,0.3346,0,0,0,0,0,0,0,0,0,0,0,0,0,0.2968,0.2878,0.3057,0.3095,0.3099,0.3173,0.3175,0.3177,0.3219,0.3218,0.3218,0.3217,0.3336,0.3341,0.3347,0.3391,0,0,0.3363,0.3365,0,0,0,0,0,0,0,0,0.2963,0.2975,0.3088,0.3092,0.3097,0.3181,0.3154,0.3249,0.3219,0.3174,0.3218,0.3217,0.3287,0.3296,0.3319,0.3397,0.3402,0.3363,0.3367,0.3369,0.337,0,0,0,0,0,0,0,0.2956,0.297,0.3103,0.3089,0.3095,0.3107,0.3119,0.3172,0.3232,0.3177,0.3181,0.3194,0.3289,0.3314,0.3322,0.3404,0.3363,0.3368,0.3371,0.3373,0.3524,0.3525,0,0,0,0,0,0,0.2943,0.2964,0.3099,0.3106,0.3027,0.311,0.3125,0.3155,0.3231,0.3243,0.3194,0.3195,0.3305,0.3316,0.3327,0.3384,0.3369,0.3374,0.3377,0.3524,0.3525,0.3526,0,0,0,0,0,0,0.2939,0.2954,0.3095,0.3036,0.3055,0.3114,0.3147,0.3157,0.3182,0.3244,0.3255,0.3208,0.3305,0.3319,0.3375,0.3389,0.3376,0.3381,0.3523,0.3524,0.3525,0.3499,0,0,0,0,0,0,0.2933,0.2953,0.297,0.3036,0.3058,0.314,0.3148,0.316,0.3191,0.3193,0.326,0.3271,0.3306,0.3367,0.338,0.3396,0.3385,0.3522,0.3523,0.3525,0.3499,0.35,0.35,0,0,0,0,0,0.2927,0.2958,0.297,0.2986,0.308,0.3141,0.3153,0.3192,0.3192,0.321,0.325,0.3269,0.3385,0.3372,0.3388,0.3405,0.3521,0.3523,0.3525,0.3499,0.35,0.35,0,0,0,0,0,0,0.2892,0.2968,0.2982,0.3036,0.3081,0.3148,0.3171,0.3191,0.3238,0.3238,0.3285,0.33,0.3352,0.3384,0.3368,0.3453,0.3455,0.3459,0.343,0.3431,0.3431,0.3422,0.339,0,0,0,0,0,0.2891,0.2933,0.2997,0.3038,0.306,0.3112,0.3139,0.3165,0.3215,0.3234,0.3279,0.3326,0.3374,0.3404,0.3451,0.3504,0.352,0.3524,0.3525,0.3525,0.3528,0.3559,0.3562,0.3531,0.3531,0.3531,0,0,0.2889,0.2935,0.2959,0.3032,0.3071,0.3114,0.3128,0.3173,0.3205,0.3242,0.3297,0.3331,0.3387,0.3441,0.3468,0.347,0.354,0.3527,0.3526,0.353,0.3561,0.3564,0.3567,0.3533,0.3532,0.3532,0,0,0.2906,0.2945,0.2984,0.3023,0.308,0.3115,0.3124,0.3187,0.3211,0.3267,0.3295,0.3335,0.3416,0.3455,0.3485,0.3518,0.3538,0.3532,0.3534,0.3564,0.3566,0.3568,0.358,0.3584,0.3536,0.3536,0.3536,0,0.2896,0.2962,0.3002,0.3046,0.3078,0.3112,0.3152,0.3187,0.3258,0.3279,0.3281,0.3383,0.3423,0.3488,0.3495,0.3519,0.3532,0.3525,0.3562,0.3565,0.3568,0.358,0.3584,0.3535,0.3535,0.3535,0.3535,0,0.2947,0.2992,0.3017,0.3083,0.3118,0.3159,0.3207,0.3237,0.326,0.3294,0.3351,0.3401,0.3459,0.3476,0.3499,0.3544,0.3543,0.3553,0.3556,0.3569,0.3581,0.3586,0.3534,0.3534,0.3534,0.3534,0,0,0.2946,0.3034,0.3043,0.3074,0.314,0.3176,0.322,0.3276,0.3301,0.3348,0.3386,0.3454,0.3463,0.3498,0.3526,0.3552,0.3575,0.3559,0.3561,0.356,0.3628,0.362,0.3625,0.3588,0.3589,0.359,0.3623,0,0.2973,0.3051,0.3089,0.3151,0.3194,0.3227,0.3265,0.331,0.3343,0.3385,0.3422,0.3469,0.3478,0.3499,0.3526,0.3566,0.3589,0.3565,0.3625,0.3626,0.3609,0.3631,0.3623,0.3652,0.3628,0.3629,0.363,0,0.3014,0.3061,0.3127,0.3189,0.3208,0.3242,0.3296,0.3335,0.3388,0.341,0.3448,0.3476,0.3523,0.3522,0.3589,0.3571,0.3598,0.3622,0.3624,0.3631,0.3629,0.3639,0.3662,0.3666,0.3637,0.3637,0.3636,0,0.3007,0.3087,0.3137,0.3162,0.3235,0.3258,0.329,0.3342,0.3373,0.3421,0.3442,0.3495,0.3524,0.3565,0.3606,0.3601,0.3669,0.3671,0.3689,0.3688,0.3702,0.3701,0.373,0.3719,0.3719,0.3719,0.3719,0,0.3033,0.3072,0.3135,0.3165,0.3211,0.3254,0.3298,0.3332,0.3378,0.3416,0.3449,0.3484,0.3536,0.3579,0.3611,0.3662,0.3675,0.3695,0.3703,0.3692,0.3689,0.371,0.3709,0.372,0.372,0.372,0.372,0,0.3032,0.3076,0.3132,0.3197,0.3214,0.3245,0.3301,0.3332,0.3367,0.3415,0.3429,0.3484,0.3536,0.3581,0.3649,0.3671,0.3723,0.3733,0.3705,0.3709,0.3725,0.3723,0.3768,0.3777,0.376,0.376,0.376,0,0.3045,0.3076,0.3145,0.3172,0.3203,0.3248,0.328,0.3325,0.3357,0.3419,0.3443,0.3497,0.3542,0.3623,0.367,0.3722,0.3734,0.3746,0.3742,0.373,0.3734,0.3732,0.3735,0.3746,0.3746,0.3746,0.3746,0,0.3065,0.3085,0.313,0.3182,0.322,0.3263,0.3308,0.3329,0.3382,0.3417,0.347,0.3505,0.3574,0.3628,0.3685,0.3719,0.3741,0.3747,0.3754,0.3743,0.3725,0.3735,0.3705,0.3746,0.3746,0.3746,0.3746,0.3746,0.3072,0.3101,0.3154,0.3203,0.3241,0.3282,0.3315,0.3354,0.3398,0.3458,0.3482,0.3536,0.3588,0.3668,0.3701,0.3745,0.3748,0.3758,0.3761,0.3763,0.3761,0.3718,0.3755,0.3755,0.3755,0.3755,0.3755,0,0.3093,0.3129,0.3173,0.3235,0.3273,0.3291,0.3341,0.3373,0.342,0.3466,0.351,0.3571,0.3623,0.3673,0.3728,0.3753,0.3765,0.3766,0.3764,0.3772,0.3754,0.3743,0.3755,0.3755,0.3755,0.3755,0.3755,0.3755,0.3109,0.3159,0.3185,0.3255,0.3291,0.3344,0.3371,0.3409,0.3447,0.3513,0.3556,0.3589,0.3637,0.3695,0.3744,0.3758,0.3776,0.3775,0.3791,0.3774,0.3773,0.3773,0.3762,0.3778,0.3778,0.3805,0.3805,0.3805]},{"header":{"parameterUnit":"m.s-1","parameterCategory":1,"la1":30.2991,"la2":30.254,"lo1":-89.0895,"lo2":-89.0444,"dy":0.0017,"dx":0.0017,"nx":28,"ny":28,"refTime":"2023-11-06T09:00:00:Z","depth":0,"parameterNumber":3,"parameterNumberName":"V-component_of_WINDS"},"data":[0,0,0,0,0,0,0,0,0,0,0,0,0,0,0,0,0,0,0,0,0,0,0,0,0,0,0,0,0,0,0,0,0,0,0,0,0,0,0,0,0,0,0,0,0,0,0,0,0,0,0,0,0,0,0,0,0,0,2.4184,2.4184,0,2.4225,2.4225,2.4226,2.4224,2.4224,2.4223,2.4223,2.4261,2.4263,2.4264,0,0,0,0,0,0,0,0,0,0,0,0,0,2.41,2.4102,2.4184,2.4184,2.4185,2.4225,2.4225,2.4226,2.4224,2.4224,2.4223,2.4222,2.4261,2.4263,2.4265,0,0,0,0,0,0,0,0,0,0,0,0,0,2.4139,2.4102,2.4183,2.4189,2.419,2.4225,2.4225,2.4226,2.4224,2.4224,2.4223,2.4222,2.426,2.4263,2.4265,2.4297,0,0,2.4272,2.4273,0,0,0,0,0,0,0,0,2.4136,2.4142,2.4187,2.4188,2.4189,2.4219,2.421,2.425,2.4225,2.4211,2.4222,2.4221,2.4248,2.4251,2.4261,2.4298,2.43,2.4272,2.4274,2.4275,2.4275,0,0,0,0,0,0,0,2.4134,2.414,2.42,2.4188,2.4189,2.4188,2.4193,2.4218,2.4233,2.4212,2.4212,2.4217,2.4248,2.4258,2.4261,2.4301,2.4272,2.4274,2.4276,2.4277,2.4368,2.4369,0,0,0,0,0,0,2.413,2.4138,2.4198,2.4201,2.416,2.419,2.4195,2.421,2.4233,2.4236,2.4218,2.4217,2.4255,2.4259,2.4263,2.4303,2.4275,2.4277,2.4278,2.4367,2.4368,2.437,0,0,0,0,0,0,2.4129,2.4136,2.4197,2.4169,2.4177,2.4193,2.4209,2.4211,2.4222,2.4238,2.424,2.4226,2.4254,2.4259,2.4289,2.4304,2.4278,2.428,2.4366,2.4368,2.4369,2.4382,0,0,0,0,0,0,2.4126,2.4135,2.4148,2.417,2.4179,2.4223,2.421,2.4213,2.4226,2.4225,2.4246,2.4248,2.4254,2.4285,2.4291,2.4307,2.4282,2.4365,2.4367,2.4368,2.4381,2.4384,2.4387,0,0,0,0,0,2.4123,2.4149,2.4149,2.4156,2.4195,2.4224,2.4229,2.4236,2.4227,2.424,2.4251,2.4248,2.4301,2.4288,2.4295,2.4312,2.4364,2.4366,2.4368,2.4379,2.4383,2.4387,0,0,0,0,0,0,2.4127,2.4152,2.4152,2.4185,2.4203,2.4224,2.424,2.424,2.4259,2.4257,2.4264,2.4269,2.4299,2.4308,2.4293,2.4344,2.4331,2.4335,2.4337,2.4342,2.4345,2.4342,2.4284,0,0,0,0,0,2.4132,2.4154,2.4174,2.4202,2.4211,2.4224,2.4237,2.4241,2.4258,2.4265,2.4278,2.4294,2.4315,2.4329,2.4348,2.4382,2.4387,2.4396,2.44,2.4402,2.4406,2.4425,2.443,2.4377,2.4377,2.4377,0,0,2.4142,2.4158,2.4172,2.4203,2.4217,2.424,2.423,2.4254,2.4271,2.4269,2.4298,2.4308,2.4327,2.4359,2.4373,2.4367,2.4421,2.4405,2.4407,2.4409,2.4428,2.4433,2.4437,2.4379,2.4378,2.4378,0,0,2.4172,2.4186,2.4212,2.4226,2.4248,2.4257,2.4263,2.4284,2.4292,2.4321,2.4321,2.434,2.4375,2.4389,2.4401,2.4438,2.4436,2.4444,2.4461,2.448,2.4485,2.4488,2.4503,2.4508,2.4447,2.4447,2.4447,0,2.4181,2.4216,2.4224,2.4249,2.4264,2.4264,2.429,2.4304,2.433,2.434,2.4333,2.4378,2.4391,2.4427,2.4436,2.4445,2.4452,2.4442,2.4483,2.4487,2.4491,2.4505,2.451,2.4448,2.4448,2.4448,2.4448,0,2.4227,2.4252,2.4269,2.4298,2.4313,2.4338,2.435,2.4365,2.4368,2.4377,2.4408,2.4423,2.4447,2.4455,2.4458,2.4492,2.4488,2.4482,2.447,2.4497,2.451,2.4515,2.4449,2.4449,2.4449,2.4449,0,0,2.4261,2.4294,2.4301,2.4314,2.4339,2.4357,2.4382,2.4407,2.442,2.4438,2.446,2.4491,2.4486,2.4499,2.4503,2.452,2.455,2.4512,2.4513,2.452,2.459,2.4595,2.4601,2.4548,2.4549,2.455,2.4589,0,2.4294,2.4341,2.435,2.439,2.4413,2.4414,2.4436,2.4454,2.4463,2.4483,2.4493,2.4515,2.4507,2.4515,2.4532,2.4543,2.4564,2.454,2.4569,2.457,2.4565,2.4608,2.4613,2.4649,2.4594,2.4595,2.4595,0,2.434,2.4362,2.4405,2.4428,2.4438,2.4458,2.4482,2.4501,2.4521,2.4527,2.4543,2.4545,2.4571,2.4557,2.4593,2.4576,2.4588,2.4595,2.4597,2.4601,2.4585,2.4614,2.466,2.4666,2.4603,2.4603,2.4602,0,2.4362,2.4402,2.4433,2.4444,2.4471,2.4486,2.4497,2.4516,2.4531,2.4552,2.4562,2.4584,2.4597,2.4614,2.4622,2.4611,2.4658,2.4644,2.4664,2.4664,2.4674,2.4674,2.4725,2.468,2.468,2.468,2.468,0,2.4399,2.4426,2.4444,2.4463,2.4493,2.4502,2.4531,2.4542,2.456,2.4581,2.4582,2.4602,2.4612,2.4633,2.4639,2.4669,2.4674,2.4679,2.4681,2.468,2.4679,2.4689,2.4687,2.4682,2.4681,2.4681,2.4681,0,2.4429,2.4442,2.4477,2.45,2.4507,2.4528,2.4548,2.4567,2.4576,2.4603,2.461,2.4625,2.465,2.466,2.469,2.4694,2.4729,2.4728,2.4723,2.4724,2.4743,2.4742,2.4803,2.4811,2.476,2.4761,2.4761,0,2.4453,2.4474,2.45,2.4516,2.4529,2.4552,2.4568,2.4578,2.4594,2.4619,2.4635,2.466,2.4681,2.4721,2.4734,2.4757,2.4757,2.4777,2.4761,2.476,2.4759,2.4758,2.4761,2.478,2.4781,2.4781,2.4782,0,2.4494,2.45,2.4523,2.4549,2.4568,2.4589,2.4608,2.462,2.4633,2.4651,2.4678,2.4694,2.4726,2.4751,2.4775,2.4787,2.4787,2.4787,2.4793,2.4792,2.4789,2.4793,2.4733,2.4785,2.4785,2.4785,2.4784,2.4784,2.4522,2.4542,2.4564,2.459,2.4607,2.4625,2.4645,2.4658,2.4681,2.4708,2.4712,2.4741,2.4761,2.4794,2.4806,2.4828,2.4823,2.4831,2.4833,2.4836,2.4838,2.4785,2.4832,2.4832,2.4832,2.4832,2.4832,0,2.4565,2.458,2.4604,2.4633,2.4653,2.4652,2.4675,2.4692,2.4718,2.4737,2.4758,2.4789,2.4814,2.4829,2.4854,2.4869,2.487,2.4875,2.4875,2.4878,2.484,2.4833,2.4875,2.4875,2.4875,2.4875,2.4875,2.4875,2.459,2.4623,2.4631,2.4673,2.4687,2.4716,2.4729,2.4747,2.4762,2.4797,2.4819,2.4829,2.4847,2.4873,2.4896,2.49,2.491,2.4916,2.492,2.4885,2.488,2.4876,2.487,2.4918,2.4918,2.4955,2.4956,2.4956]}]]